Regional Weather Roundup
Issued by NWS Upton, NY

Current Version | Previous Version | Graphics & Text | Print | Product List | Glossary Off
Versions: 1 2 3 4 5 6 7 8 9 10 11 12 13 14 15 16 17 18 19 20 21 22 23 24 25 26 27 28 29 30 31 32 33 34 35 36 37 38 39 40 41 42 43 44 45 46 47 48 49 50

000
ASUS41 KOKX 300604
RWROKX

REGIONAL WEATHER ROUNDUP
NATIONAL WEATHER SERVICE NEW YORK NY
200 AM EDT SUN AUG 30 2015

NOTE: "FAIR" INDICATES FEW OR NO CLOUDS BELOW 12,000 FEET WITH NO
SIGNIFICANT WEATHER AND/OR OBSTRUCTIONS TO VISIBILITY.

NYZ071-072-176-178-NJZ106-104-300700-
NEW YORK CITY METRO AREA


CITY           SKY/WX    TMP DP  RH WIND       PRES   REMARKS
CENTRAL PARK   FAIR      74  58  57 CALM      30.13F
LAGUARDIA APRT MOCLDY    75  59  57 SW10      30.09F
KENNEDY INTL   MOCLDY    73  61  65 SW8       30.11F
NEWARK/LIBERTY MOCLDY    73  60  63 SW7       30.10F
BRNX BOT. GARD   N/A     73  59  60 W2        30.12F
TETERBORO      FAIR      72  59  63 S3        30.09F
$$

NYZ177-179-078>081-300700-
LONG ISLAND NEW YORK

CITY           SKY/WX    TMP DP  RH WIND       PRES   REMARKS
FARMINGDALE    FAIR      73  62  68 SW7       30.11F
ISLIP          MOCLDY    73  65  75 SW8       30.09F
SHIRLEY        FAIR      73  66  78 SW7       30.11F
WESTHAMPTON    CLOUDY    74  67  78 SW7       30.12F
MONTAUK POINT    N/A     73  65  75 SW6       30.12F
$$

NYZ052-065-067-300700-
HUDSON VALLEY

CITY           SKY/WX    TMP DP  RH WIND       PRES   REMARKS
WHITE PLAINS   FAIR      70  61  73 CALM      30.10F
NEWBURGH       PTCLDY    66  63  88 CALM      30.11F
MONTGOMERY     FAIR      62  60  93 CALM      30.09F
POUGHKEEPSIE   FAIR      65  61  87 CALM      30.07F
ALBANY         FAIR      66  59  78 S3        30.08F
$$

NJZ001-105-106-008-010-013-015-019>022-104-300700-
NEW JERSEY

CITY           SKY/WX    TMP DP  RH WIND       PRES   REMARKS
NEWARK/LIBERTY MOCLDY    73  60  63 SW7       30.10F
TETERBORO      FAIR      72  59  63 S3        30.09F
CALDWELL       FAIR      68  60  75 CALM      30.10F
MORRISTOWN     FAIR      59  55  88 CALM      30.11F
SOMERVILLE     FAIR      63  60  90 CALM      30.09F
SUSSEX         FAIR      61  59  93 CALM      30.11F FOG
ANDOVER          N/A     62  61  96 SW3       30.12F
TRENTON        FAIR      70  61  73 CALM      30.10F
MILLVILLE      FAIR      66  63  90 CALM      30.12F
ATLANTIC CITY  FAIR      69  63  81 S3        30.12F
WRIGHTSTOWN    FAIR      65  62  90 S3        30.09F
TOMS RIVER     FAIR      66  61  82 SW5       30.12F
BELMAR         FAIR      70  57  64 SW5       30.12F
$$

PAZ047>061-062-071-300700-
EASTERN PENNSYLVANIA

CITY           SKY/WX    TMP DP  RH WIND       PRES   REMARKS
PHILADELPHIA   MOCLDY    72  62  71 S7        30.12F
ALLENTOWN      FAIR      64  62  93 CALM      30.11F
SCRANTON       FAIR      64  58  80 E5        30.11F
$$

CTZ002-004>006-009-010-012-RIZ004-006-007-MAZ004-011-015-300700-
SOUTHERN NEW ENGLAND
 IN CT

CITY           SKY/WX    TMP DP  RH WIND       PRES   REMARKS
BRADLEY INTL   MOCLDY    68  60  75 S3        30.08F
HARTFORD       MOCLDY    69  63  81 S3        30.08F
DANBURY        FAIR      64  59  83 CALM      30.11F
WTRBRY/OXFORD  FAIR      66  57  72 SW5       30.12F
BRIDGEPORT     FAIR      75  65  70 SW12      30.09F
MERIDEN        FAIR      62  59  90 CALM      30.10F
NEW HAVEN      MOCLDY    73  66  78 SW6       30.10F
CHESTER        NOT AVBL
GROTON         FAIR      70  67  90 SW6       30.10F
WILLIMANTIC    MOCLDY    62  58  86 CALM      30.11F

 IN RI

CITY           SKY/WX    TMP DP  RH WIND       PRES   REMARKS
PROVIDENCE     FAIR      68  63  84 W8        30.10F
BLOCK ISLAND   FAIR      70  66  88 W7        30.11F
WESTERLY       FAIR      67  64  90 CALM      30.11F

 IN MA

CITY           SKY/WX    TMP DP  RH WIND       PRES   REMARKS
BOSTON         MOCLDY    71  60  68 SW14      30.07F
WORCESTER      FAIR      64  58  80 W8        30.11F
WESTFIELD      MOCLDY    64  60  87 S5        30.08F
PROVINCETOWN   FAIR      68  59  73 SW12      30.09F
NANTUCKET      FAIR      68  64  87 SW7       30.11F
$$

ANZ330-335-338-340-345-350-353-355-300700-
COASTAL MARINE OBSERVATIONS


STATION/POSITION TIME  SKY/WX   TEMP    WIND        PRES    VSBY  WAVE
                                AIR SEA DIR/SP/G                  HT/PER
                 (UTC)          (F)     (DEG/KT/KT) (MB)    (MI)  (FT/S)
NY HARB ENTRANCE 0450            75 76  230/ 17/ 21 1019.3          3/11
4S FIRE IS       NOT AVBL
20S FIRE ISLAND  0450            75 75  230/ 14/ 16 1019.8          3/11
GREAT SOUTH BAY  0500            75 78  260/ 12/ 14   N/A
23SW MTP         0550            74 73  240/ 12/ 16 1019.4          3/11
HUDSON CANYON    NOT AVBL
KINGS POINT      NOT AVBL
EXECUTION ROCKS  0500            75     200/ 12/ 14   N/A
CENTRAL LI SOUND NOT AVBL
EASTERN LI SOUND 0500            71 70  260/  4/  8   N/A
ROBBINS REEF     NOT AVBL
$$


>>>>>>>>>>>>>>>>>>>>>>>>>>>> KEY <<<<<<<<<<<<<<<<<<<<<<<<<<<
>                                                          <
>     SKY/WX - SKY CONDITION/PRESENT WEATHER               <
>     TMP    - TEMPERATURE IN FAHRENHEIT                   <
>     DP     - DEWPOINT IN FAHRENHEIT                      <
>     RH     - RELATIVE HUMIDITY IN PERCENT                <
>     WIND   - DIRECTION AND SPEED IN MPH                  <
>     PRES   - MEAN SEA LEVEL PRESSURE IN INCHES OF HG     <
>     WCI    - WIND CHILL INDEX                            <
>     VSB    - VISIBILITY IN MILES                         <
>     HX     - HEAT INDEX                                  <
>     TC     - TEMPERATURE IN CELSIUS                      <
>     VRB    - VARIABLE WIND DIRECTION                     <
>                                                          <
>>>>>>>>>>>>>>>>>>>>>>>>>>>> KEY <<<<<<<<<<<<<<<<<<<<<<<<<<<





USA.gov is the U.S. government's official web portal to all federal, state and local government web resources and services.